Regional Weather Roundup
Issued by NWS State College, PA

Home | Current Version | Previous Version | Graphics & Text | Print | Product List | Glossary On
Versions: 1 2 3 4 5 6 7 8 9 10 11 12 13 14 15 16 17 18 19 20 21 22 23 24 25 26 27 28 29 30 31 32 33 34 35 36 37 38 39 40 41 42 43 44 45 46 47 48 49 50
984
ASUS41 KCTP 062103
RWRCTP

REGIONAL WEATHER ROUNDUP
NATIONAL WEATHER SERVICE STATE COLLEGE PA
500 PM EDT FRI MAY 06 2016

Note: "fair" indicates few or no clouds below 12,000 feet with no
significant weather and/or obstructions to visibility.

* = STATION THAT DOES NOT REPORT PRECIPITATION /E.G. RAIN...SNOW...ETC/
    THUNDER OR FOG.

PAZ002>004-007>009-013>016-020>023-029>032-062200-
WESTERN PENNSYLVANIA

CITY           SKY/WX    TMP DP  RH WIND       PRES   REMARKS
ERIE           MOSUNNY   58  41  53 W7        29.82F
MEADVILLE      MOSUNNY   61  33  35 N21G28    29.80S
FRANKLIN*      CLOUDY    59  36  41 NE14G20   29.80R
NEW CASTLE     FAIR      66  32  28 N18G24    29.78S
BEAVER COUNTY  PTSUNNY   66  30  26 N13G30    29.76S
BUTLER*        CLOUDY    63  36  36 N7G18     29.78R
PITTSBURGH INT CLOUDY    65  29  25 N22G31    29.74R
PITTSBURGH     CLOUDY    63  33  32 NW18G31   29.72S
INDIANA*       PTSUNNY   52  46  82 E8G14     29.79R HAZE
LATROBE        LGT RAIN  55  45  67 E9        29.75S
WASHINGTON CO* CLOUDY    63  34  34 NW13G23   29.75R
$$

PAZ004>006-010>012-017>019-024>028-033>037-041-042-045-046-049>053-062200-
CENTRAL PENNSYLVANIA

CITY           SKY/WX    TMP DP  RH WIND       PRES   REMARKS
BRADFORD       LGT RAIN  52  32  46 NE15G28   29.79R
DUBOIS         LGT RAIN  48  41  76 NE14      29.77R
CLEARFIELD     LGT RAIN  50  43  77 N8        29.77R
JOHNSTOWN      LGT RAIN  47  40  76 N8        29.74S
ALTOONA        LGT RAIN  50  45  83 N9        29.74S
STATE COLLEGE  RAIN      50  45  81 NE12      29.73S FOG
WILLIAMSPORT   CLOUDY    56  46  69 NE8G17    29.71S
SELINSGROVE    LGT RAIN  54  50  86 N12       29.69F
FT INDIANTOWN  LGT RAIN  52  52 100 N6        29.67R FOG
CAPITAL CITY   LGT RAIN  54  49  83 N5        29.67S
HARRISBURG     LGT RAIN  54  49  83 NE6       29.66S
YORK           LGT RAIN  51  49  92 N7        29.66S FOG
$$

PAZ038>040-043-044-047-048-054-055-060>062-067>071-062200-
EASTERN PENNSYLVANIA

CITY           SKY/WX    TMP DP  RH WIND       PRES   REMARKS
SCRANTON       CLOUDY    55  49  80 E9        29.70F
MOUNT POCONO   LGT RAIN  46  46 100 E14G21    29.70S VSB 3/4
ALLENTOWN      CLOUDY    54  48  82 E15G23    29.68S FOG
QUAKERTOWN*    CLOUDY    50  50 100 E9G17     29.68R
READING        LGT RAIN  52  49  89 VRB6      29.66S FOG
LANCASTER      CLOUDY    52  50  93 NE9       29.65S
COATESVILLE    HVY RAIN  50  50 100 MISG      29.65S VSB 3/4
POTTSTOWN      CLOUDY    50  49  96 NE16G23   29.66S FOG
BLUE BELL      CLOUDY    50  48  93 NE12G17   29.64S
DOYLESTOWN     LGT RAIN  48  48 100 VRB7      29.66S
WILLOW GROVE   NOT AVBL
NORTH PHILA    CLOUDY    53  50  89 NE15      29.66S FOG
PHILADELPHIA   DRIZZLE   54  50  86 NE13      29.62S FOG
$$




USA.gov is the U.S. government's official web portal to all federal, state and local government web resources and services.